[[{"header":{"parameterUnit":"m.s-1","parameterCategory":2,"la1":30.2991,"la2":30.254,"lo1":-89.0895,"lo2":-89.0444,"dy":0.0017,"dx":0.0017,"nx":28,"ny":28,"refTime":"2024-08-24T21:00:00:Z","depth":"0","parameterNumber":2,"parameterNumberName":"U-component_of_CURRENTS"},"data":[0,0,0,0,0,0,0,0,0,0,0,0,0,0,0,0,0,0,0,0,0,0,0,0,0,0,0,0,0,0,0,0,0,0,0,0,0,0,0,0,0,0,0,0,0,0,0,0,0,0,0,0,0,0,0,0,0,0,0.1932,0.1932,0,0.1937,0.1937,0.1937,0.1929,0.1928,0.1928,0.1928,0.1922,0.1922,0.1922,0,0,0,0,0,0,0,0,0,0,0,0,0,0.1915,0.1915,0.1932,0.1932,0.1932,0.1937,0.1937,0.1937,0.1929,0.1928,0.1928,0.1928,0.1922,0.1922,0.1922,0,0,0,0,0,0,0,0,0,0,0,0,0,0.192,0.1915,0.1932,0.193,0.193,0.1937,0.1937,0.1937,0.1929,0.1928,0.1928,0.1928,0.1922,0.1922,0.1922,0.1926,0,0,0.1922,0.1922,0,0,0,0,0,0,0,0,0.192,0.192,0.193,0.193,0.193,0.1933,0.1929,0.1933,0.1929,0.1927,0.1928,0.1928,0.1926,0.1926,0.1925,0.1926,0.1925,0.1922,0.1922,0.1922,0.1922,0,0,0,0,0,0,0,0.1919,0.192,0.1932,0.193,0.193,0.1929,0.1929,0.193,0.1926,0.1927,0.1927,0.193,0.1926,0.1925,0.1925,0.1925,0.1922,0.1922,0.1922,0.1922,0.2002,0.2004,0,0,0,0,0,0,0.1922,0.192,0.1932,0.1932,0.1926,0.193,0.193,0.1931,0.1926,0.1926,0.1931,0.193,0.1925,0.1925,0.1924,0.1997,0.1922,0.1922,0.1922,0.2,0.2003,0.2005,0,0,0,0,0,0,0.1922,0.1923,0.1932,0.1928,0.1929,0.193,0.1932,0.1931,0.194,0.1929,0.1928,0.1941,0.1925,0.1924,0.1951,0.1994,0.1922,0.1922,0.1997,0.2001,0.2004,0.2099,0,0,0,0,0,0,0.1921,0.1923,0.1921,0.1928,0.1929,0.1954,0.1932,0.1932,0.1942,0.1942,0.1938,0.1936,0.1925,0.1952,0.1952,0.1993,0.1922,0.1995,0.1999,0.2003,0.2093,0.2105,0.2115,0,0,0,0,0,0.1921,0.1921,0.1921,0.1922,0.1928,0.1956,0.1957,0.1956,0.1943,0.1959,0.1962,0.1937,0.1977,0.1954,0.1953,0.1995,0.1993,0.1998,0.2002,0.2088,0.2102,0.2115,0,0,0,0,0,0,0.1905,0.192,0.1921,0.1923,0.1947,0.1955,0.1961,0.1964,0.1976,0.1972,0.196,0.196,0.2,0.1985,0.1959,0.2032,0.1983,0.1988,0.2048,0.2062,0.2072,0.2083,0.1921,0,0,0,0,0,0.1903,0.1913,0.1932,0.1937,0.1947,0.1956,0.1964,0.1971,0.1983,0.1988,0.199,0.1997,0.2018,0.203,0.2037,0.2074,0.2082,0.2102,0.2113,0.2123,0.2133,0.2177,0.2193,0.2021,0.2021,0.2021,0,0,0.1895,0.1908,0.191,0.1936,0.1946,0.1984,0.196,0.1983,0.2021,0.1985,0.2031,0.2031,0.2035,0.2082,0.2099,0.2076,0.2185,0.2129,0.2137,0.2142,0.2183,0.22,0.2215,0.2024,0.2024,0.2023,0,0,0.1902,0.1901,0.1919,0.1949,0.198,0.1998,0.2011,0.2035,0.2051,0.2094,0.2086,0.2118,0.2137,0.2163,0.2175,0.2252,0.2238,0.2252,0.2322,0.2365,0.2379,0.2391,0.2457,0.2475,0.2262,0.2262,0.2262,0,0.1888,0.1924,0.193,0.1968,0.2001,0.2012,0.2059,0.2082,0.2116,0.2144,0.2122,0.2184,0.2183,0.2258,0.2288,0.2279,0.2303,0.2269,0.2379,0.2392,0.2403,0.2467,0.2485,0.2267,0.2267,0.2266,0.2266,0,0.1923,0.1958,0.1974,0.2033,0.2069,0.211,0.2154,0.2191,0.2208,0.2236,0.2302,0.2306,0.2347,0.2357,0.2345,0.2435,0.2428,0.2384,0.2344,0.2426,0.2489,0.2506,0.2275,0.2273,0.2271,0.227,0,0,0.1887,0.1978,0.1989,0.2038,0.2112,0.2149,0.2222,0.2298,0.2347,0.2381,0.245,0.2494,0.2491,0.2505,0.2499,0.2537,0.2645,0.25,0.25,0.2565,0.2766,0.2814,0.2837,0.2616,0.2619,0.2621,0.2789,0,0.1919,0.2007,0.2049,0.2148,0.2203,0.2252,0.2322,0.239,0.2434,0.25,0.2528,0.2577,0.255,0.2566,0.2611,0.2626,0.269,0.2605,0.2677,0.268,0.2711,0.2858,0.2742,0.2886,0.2806,0.2809,0.2811,0,0.1951,0.2014,0.2109,0.2226,0.2251,0.2309,0.2425,0.2487,0.2579,0.2608,0.267,0.2679,0.2764,0.27,0.2814,0.276,0.2783,0.2791,0.2796,0.2816,0.276,0.2785,0.292,0.2831,0.2837,0.2835,0.2833,0,0.1948,0.2062,0.2144,0.2185,0.2306,0.2358,0.2422,0.2519,0.2583,0.2672,0.2724,0.2803,0.2852,0.289,0.2932,0.2874,0.3046,0.2961,0.304,0.3043,0.2948,0.2939,0.3001,0.3051,0.3051,0.305,0.305,0,0.198,0.2046,0.2147,0.2194,0.2293,0.2367,0.2469,0.2535,0.2637,0.2727,0.2775,0.2862,0.2896,0.2992,0.2999,0.3113,0.3115,0.3101,0.3105,0.2983,0.2976,0.2893,0.2839,0.3057,0.3055,0.3054,0.3053,0,0.1971,0.2038,0.2135,0.2256,0.2294,0.2362,0.2493,0.2558,0.2657,0.2776,0.2808,0.2941,0.3076,0.3135,0.322,0.3223,0.3215,0.3322,0.32,0.3188,0.3156,0.3111,0.31,0.3004,0.3439,0.3442,0.3444,0,0.1977,0.2027,0.2158,0.2205,0.226,0.2363,0.2428,0.2549,0.2618,0.283,0.2883,0.3062,0.3179,0.337,0.3416,0.3502,0.333,0.3416,0.3283,0.3198,0.3149,0.2999,0.2905,0.3202,0.3202,0.3202,0.3202,0,0.1987,0.2028,0.2098,0.2192,0.2265,0.2355,0.2455,0.2512,0.2663,0.2777,0.2944,0.3061,0.3306,0.3359,0.35,0.3518,0.3257,0.3421,0.334,0.301,0.2838,0.2731,0.3066,0.3201,0.3201,0.3201,0.3201,0.3202,0.1975,0.2019,0.2096,0.2174,0.2249,0.2312,0.2343,0.2454,0.2564,0.2694,0.2886,0.3013,0.3184,0.3389,0.3405,0.3376,0.3334,0.3238,0.3209,0.308,0.2929,0.3306,0.3435,0.3436,0.3437,0.3438,0.3439,0,0.1962,0.2007,0.2074,0.2148,0.2176,0.2247,0.2329,0.2329,0.2401,0.2578,0.2707,0.2882,0.298,0.3096,0.3215,0.3146,0.2956,0.3048,0.2762,0.2691,0.3042,0.2971,0.2993,0.2993,0.2993,0.2993,0.2993,0.2993,0.1961,0.1999,0.2028,0.2048,0.2085,0.2077,0.2093,0.2118,0.2199,0.2301,0.2406,0.2548,0.2823,0.3006,0.2994,0.2918,0.2665,0.2594,0.2568,0.2771,0.2783,0.2794,0.2714,0.2682,0.2682,0.207,0.2065,0.2062]},{"header":{"parameterUnit":"m.s-1","parameterCategory":2,"la1":30.2991,"la2":30.254,"lo1":-89.0895,"lo2":-89.0444,"dy":0.0017,"dx":0.0017,"nx":28,"ny":28,"refTime":"2024-08-24T21:00:00:Z","depth":"0","parameterNumber":3,"parameterNumberName":"V-component_of_CURRENTS"},"data":[0,0,0,0,0,0,0,0,0,0,0,0,0,0,0,0,0,0,0,0,0,0,0,0,0,0,0,0,0,0,0,0,0,0,0,0,0,0,0,0,0,0,0,0,0,0,0,0,0,0,0,0,0,0,0,0,0,0,-0.1102,-0.1102,0,-0.1073,-0.1072,-0.1072,-0.1093,-0.1094,-0.1095,-0.1096,-0.1231,-0.1234,-0.1236,0,0,0,0,0,0,0,0,0,0,0,0,0,-0.1137,-0.1136,-0.1102,-0.1102,-0.1101,-0.1073,-0.1072,-0.1071,-0.1092,-0.1094,-0.1095,-0.1097,-0.1231,-0.1234,-0.1237,0,0,0,0,0,0,0,0,0,0,0,0,0,-0.1114,-0.1136,-0.1102,-0.1111,-0.1111,-0.1073,-0.1072,-0.1071,-0.1092,-0.1094,-0.1096,-0.1097,-0.123,-0.1233,-0.1237,-0.1224,0,0,-0.1248,-0.125,0,0,0,0,0,0,0,0,-0.1115,-0.1112,-0.1109,-0.111,-0.1111,-0.1091,-0.1134,-0.1132,-0.1092,-0.1096,-0.1096,-0.1098,-0.12,-0.1206,-0.1191,-0.1231,-0.1237,-0.1249,-0.1251,-0.1253,-0.1254,0,0,0,0,0,0,0,-0.1117,-0.1113,-0.1087,-0.1109,-0.111,-0.1103,-0.1102,-0.1133,-0.1139,-0.1096,-0.1098,-0.1099,-0.1202,-0.1187,-0.1195,-0.1239,-0.1249,-0.1252,-0.1254,-0.1256,-0.1254,-0.1252,0,0,0,0,0,0,-0.1126,-0.1115,-0.1088,-0.1087,-0.1121,-0.1102,-0.11,-0.1093,-0.1136,-0.1143,-0.1097,-0.11,-0.1179,-0.119,-0.12,-0.1165,-0.1253,-0.1256,-0.1258,-0.1256,-0.1254,-0.1251,0,0,0,0,0,0,-0.1126,-0.1123,-0.109,-0.1103,-0.1099,-0.11,-0.1091,-0.1091,-0.1076,-0.1135,-0.1146,-0.1083,-0.1181,-0.1194,-0.1194,-0.1172,-0.1258,-0.1261,-0.1259,-0.1255,-0.1252,-0.1111,0,0,0,0,0,0,-0.1127,-0.1123,-0.1107,-0.1103,-0.1098,-0.1039,-0.109,-0.109,-0.1076,-0.1079,-0.1127,-0.1141,-0.1184,-0.1187,-0.1198,-0.1178,-0.1264,-0.1262,-0.1257,-0.1253,-0.1118,-0.1103,-0.109,0,0,0,0,0,-0.1129,-0.1093,-0.1106,-0.1103,-0.1081,-0.1036,-0.1031,-0.1037,-0.1073,-0.1037,-0.107,-0.1139,-0.1169,-0.1188,-0.12,-0.1182,-0.1264,-0.1259,-0.1254,-0.1125,-0.1106,-0.109,0,0,0,0,0,0,-0.1102,-0.1092,-0.1107,-0.1072,-0.1048,-0.1041,-0.1008,-0.1027,-0.1021,-0.1029,-0.1102,-0.1115,-0.1108,-0.1156,-0.1176,-0.1166,-0.1231,-0.1228,-0.1129,-0.1112,-0.1098,-0.1111,-0.1267,0,0,0,0,0,-0.1089,-0.106,-0.1052,-0.1022,-0.1006,-0.1009,-0.0993,-0.0994,-0.0996,-0.0994,-0.1033,-0.1072,-0.1093,-0.1111,-0.1131,-0.1125,-0.1178,-0.1123,-0.1108,-0.1096,-0.1113,-0.115,-0.1141,-0.1234,-0.1234,-0.1234,0,0,-0.1073,-0.1064,-0.1048,-0.1014,-0.0998,-0.0946,-0.1001,-0.0957,-0.0929,-0.1014,-0.0986,-0.102,-0.1077,-0.1058,-0.1063,-0.1101,-0.1087,-0.1089,-0.1078,-0.1103,-0.1144,-0.1135,-0.1128,-0.1231,-0.1231,-0.1232,0,0,-0.1009,-0.1012,-0.0956,-0.0924,-0.0888,-0.0888,-0.0875,-0.0857,-0.0861,-0.0833,-0.089,-0.0906,-0.0934,-0.0966,-0.0991,-0.0914,-0.1004,-0.0921,-0.087,-0.0904,-0.0898,-0.0893,-0.0908,-0.0906,-0.0922,-0.0921,-0.0921,0,-0.0988,-0.0923,-0.093,-0.0861,-0.0832,-0.086,-0.0791,-0.0786,-0.0775,-0.0788,-0.0806,-0.0852,-0.0894,-0.0906,-0.0872,-0.0886,-0.0914,-0.093,-0.0887,-0.0884,-0.0881,-0.0899,-0.0899,-0.0914,-0.0915,-0.0915,-0.0916,0,-0.0878,-0.082,-0.0779,-0.0713,-0.0682,-0.0619,-0.0623,-0.061,-0.0637,-0.0653,-0.0665,-0.0707,-0.0751,-0.0753,-0.0791,-0.0792,-0.0818,-0.0858,-0.0934,-0.0864,-0.0886,-0.0888,-0.0903,-0.0906,-0.0908,-0.091,0,0,-0.0834,-0.0725,-0.0704,-0.0654,-0.0597,-0.0562,-0.0528,-0.0513,-0.0513,-0.0523,-0.0528,-0.056,-0.0615,-0.0647,-0.0698,-0.0727,-0.0712,-0.0778,-0.0783,-0.0798,-0.0771,-0.0736,-0.0736,-0.0744,-0.0744,-0.0744,-0.0779,0,-0.0739,-0.0588,-0.0571,-0.0448,-0.0372,-0.0398,-0.0372,-0.0375,-0.04,-0.0408,-0.0484,-0.0497,-0.0566,-0.0581,-0.0621,-0.0696,-0.0718,-0.0699,-0.0835,-0.0839,-0.0821,-0.0738,-0.068,-0.0703,-0.0782,-0.0783,-0.0783,0,-0.062,-0.054,-0.0397,-0.0325,-0.0301,-0.0256,-0.0247,-0.0223,-0.0266,-0.0293,-0.0342,-0.04,-0.0454,-0.0511,-0.0625,-0.0609,-0.0679,-0.0737,-0.0741,-0.0772,-0.0809,-0.0794,-0.0705,-0.0877,-0.0787,-0.0787,-0.0787,0,-0.0554,-0.0421,-0.0313,-0.0273,-0.0199,-0.0183,-0.0171,-0.0192,-0.0178,-0.0223,-0.0217,-0.0314,-0.0339,-0.0457,-0.058,-0.0603,-0.0693,-0.0745,-0.078,-0.0778,-0.0791,-0.079,-0.0897,-0.0816,-0.0816,-0.0816,-0.0816,0,-0.044,-0.0348,-0.0279,-0.0207,-0.0129,-0.0118,-0.0065,-0.0081,-0.0088,-0.0046,-0.0155,-0.0139,-0.0325,-0.04,-0.0539,-0.0651,-0.0667,-0.0759,-0.0782,-0.0733,-0.0726,-0.093,-0.1026,-0.0817,-0.0817,-0.0817,-0.0817,0,-0.0347,-0.029,-0.0167,-0.0094,-0.0077,-0.0023,0.0022,0.0057,0.003,0.0085,0.0081,-0.0002,-0.0091,-0.0267,-0.0438,-0.0569,-0.0775,-0.0738,-0.0653,-0.0665,-0.0861,-0.0948,-0.1089,-0.1157,-0.0786,-0.0785,-0.0785,0,-0.0272,-0.0195,-0.0086,-0.0026,0.0015,0.008,0.0127,0.012,0.0168,0.0184,0.023,0.0161,0.0155,-0.0088,-0.0326,-0.0542,-0.0725,-0.0655,-0.0695,-0.085,-0.0967,-0.1042,-0.1096,-0.0647,-0.0645,-0.0644,-0.0643,0,-0.0148,-0.0118,-0.0025,0.0094,0.0165,0.0243,0.0311,0.0368,0.0381,0.0446,0.0521,0.0521,0.0305,0.0132,-0.018,-0.0361,-0.075,-0.0632,-0.0826,-0.0886,-0.0944,-0.1027,-0.0644,-0.0631,-0.0632,-0.0633,-0.0634,-0.0634,-0.0067,0.0011,0.0117,0.0228,0.0311,0.0411,0.0501,0.0583,0.0701,0.0829,0.0782,0.0849,0.0528,0.013,-0.0141,-0.0617,-0.0652,-0.077,-0.0867,-0.0932,-0.0989,-0.0561,-0.0555,-0.0556,-0.0556,-0.0557,-0.0557,0,0.0047,0.0127,0.024,0.0385,0.0498,0.0503,0.0637,0.0744,0.0932,0.1048,0.1147,0.1053,0.0665,0.0202,-0.0418,-0.0779,-0.0947,-0.1011,-0.1133,-0.1182,-0.0826,-0.0812,-0.0819,-0.0819,-0.0819,-0.0819,-0.0819,-0.0819,0.0112,0.0254,0.0312,0.0526,0.0619,0.078,0.087,0.103,0.1152,0.1353,0.1429,0.1433,0.1065,-0.0072,-0.09,-0.1112,-0.1388,-0.142,-0.1595,-0.1386,-0.1373,-0.136,-0.1372,-0.1496,-0.1497,-0.1896,-0.19,-0.1903]}],[{"header":{"parameterUnit":"m.s-1","parameterCategory":2,"la1":30.2991,"la2":30.254,"lo1":-89.0895,"lo2":-89.0444,"dy":0.0017,"dx":0.0017,"nx":28,"ny":28,"refTime":"2024-08-24T21:00:00:Z","depth":"2","parameterNumber":2,"parameterNumberName":"U-component_of_CURRENTS"},"data":[0,0,0,0,0,0,0,0,0,0,0,0,0,0,0,0,0,0,0,0,0,0,0,0,0,0,0,0,0,0,0,0,0,0,0,0,0,0,0,0,0,0,0,0,0,0,0,0,0,0,0,0,0,0,0,0,0,0,0.189,0.189,0,0.1943,0.1944,0.1944,0.1957,0.1957,0.1957,0.1957,0.2047,0.205,0.2052,0,0,0,0,0,0,0,0,0,0,0,0,0,0.1925,0.1923,0.1889,0.189,0.1891,0.1943,0.1944,0.1944,0.1957,0.1957,0.1957,0.1957,0.2046,0.2049,0.2052,0,0,0,0,0,0,0,0,0,0,0,0,0,0.1934,0.1923,0.1889,0.1906,0.1908,0.1943,0.1944,0.1944,0.1957,0.1957,0.1957,0.1956,0.2045,0.2049,0.2053,0.208,0,0,0.2064,0.2066,0,0,0,0,0,0,0,0,0.1934,0.1933,0.1903,0.1905,0.1907,0.1946,0.199,0.1992,0.1957,0.1936,0.1957,0.1956,0.2019,0.2025,0.2031,0.2084,0.2088,0.2065,0.2067,0.2069,0.207,0,0,0,0,0,0,0,0.1933,0.1931,0.1908,0.1904,0.1907,0.1955,0.1954,0.1991,0.1976,0.1937,0.1939,0.1949,0.202,0.2027,0.2033,0.2089,0.2065,0.2068,0.207,0.2072,0.22,0.2201,0,0,0,0,0,0,0.1925,0.193,0.1906,0.191,0.1924,0.1954,0.1953,0.1931,0.1975,0.1982,0.195,0.195,0.2021,0.2029,0.2036,0.2106,0.2069,0.2072,0.2074,0.2199,0.22,0.2202,0,0,0,0,0,0,0.1925,0.1921,0.1904,0.1926,0.1927,0.1953,0.1928,0.1933,0.1947,0.1984,0.1991,0.1961,0.2021,0.2031,0.2075,0.2108,0.2074,0.2077,0.2198,0.2199,0.2201,0.2223,0,0,0,0,0,0,0.1925,0.1919,0.1907,0.1924,0.1926,0.1926,0.1929,0.1934,0.1954,0.1955,0.1996,0.2004,0.2021,0.207,0.2079,0.2113,0.208,0.2196,0.2198,0.2201,0.2221,0.2225,0.2229,0,0,0,0,0,0.1925,0.1912,0.1904,0.1903,0.1903,0.1927,0.1932,0.195,0.1955,0.1961,0.1991,0.2003,0.209,0.2074,0.2085,0.212,0.2195,0.2198,0.22,0.2219,0.2224,0.2229,0,0,0,0,0,0,0.1926,0.1913,0.1905,0.1887,0.1905,0.193,0.1945,0.1955,0.1982,0.1986,0.2017,0.2027,0.2072,0.2095,0.2076,0.2163,0.2146,0.215,0.2156,0.2161,0.2165,0.2204,0.2083,0,0,0,0,0,0.1916,0.1895,0.1904,0.1891,0.1902,0.1923,0.1938,0.1946,0.1973,0.1985,0.2021,0.2059,0.2091,0.2123,0.2149,0.2206,0.2235,0.2236,0.224,0.2243,0.2283,0.2312,0.2323,0.221,0.221,0.221,0,0,0.1911,0.1905,0.1891,0.189,0.1906,0.1938,0.1931,0.1952,0.1995,0.1993,0.2064,0.2067,0.2104,0.2156,0.2181,0.2184,0.2293,0.2246,0.2249,0.2288,0.2316,0.2327,0.2337,0.2212,0.2212,0.2211,0,0,0.1908,0.1888,0.1878,0.19,0.1922,0.1946,0.1954,0.1986,0.2016,0.2072,0.2076,0.2103,0.2172,0.22,0.2224,0.2272,0.2299,0.2279,0.2353,0.238,0.239,0.2399,0.2461,0.2475,0.2298,0.2298,0.2298,0,0.1906,0.1897,0.1886,0.1905,0.194,0.1955,0.1989,0.2026,0.2073,0.2118,0.2101,0.219,0.22,0.2276,0.2291,0.2284,0.2316,0.2327,0.2386,0.2395,0.2404,0.2465,0.2481,0.2299,0.2299,0.2299,0.2299,0,0.1906,0.1917,0.1926,0.1951,0.1982,0.2016,0.2068,0.2113,0.2152,0.2196,0.2268,0.2273,0.2335,0.2329,0.2333,0.2406,0.2415,0.2369,0.2372,0.2417,0.2478,0.2494,0.2301,0.2301,0.23,0.23,0,0,0.1869,0.1914,0.1924,0.1961,0.2016,0.2049,0.213,0.2218,0.2288,0.2329,0.2418,0.2453,0.2455,0.2482,0.2469,0.2499,0.2572,0.2478,0.2478,0.254,0.2672,0.2604,0.2614,0.2533,0.2535,0.2537,0.2694,0,0.1886,0.193,0.1957,0.2039,0.2076,0.2137,0.2215,0.2294,0.2365,0.2456,0.2485,0.2546,0.2516,0.2529,0.2561,0.2558,0.2615,0.2538,0.2622,0.2626,0.2558,0.263,0.2413,0.2527,0.2709,0.2712,0.2714,0,0.1884,0.1923,0.1986,0.2094,0.2119,0.2179,0.2317,0.2388,0.2513,0.2565,0.2639,0.2658,0.273,0.2665,0.2749,0.2703,0.2717,0.2711,0.2715,0.2663,0.2587,0.251,0.2549,0.274,0.2738,0.2736,0.2734,0,0.1863,0.1956,0.2013,0.2048,0.2158,0.2225,0.2301,0.2424,0.2506,0.2634,0.2693,0.2776,0.2813,0.2841,0.2849,0.281,0.2926,0.2858,0.2828,0.2824,0.2667,0.2644,0.2938,0.2938,0.2938,0.2937,0.2937,0,0.1872,0.1927,0.2015,0.2052,0.2153,0.2227,0.2354,0.244,0.2565,0.2661,0.2743,0.2805,0.2856,0.2919,0.2913,0.2936,0.2987,0.2883,0.2865,0.2668,0.2645,0.284,0.2826,0.2943,0.2942,0.2941,0.294,0,0.1839,0.1892,0.1964,0.2087,0.2137,0.2207,0.2377,0.2458,0.2581,0.2703,0.2742,0.2865,0.2942,0.2997,0.3049,0.3014,0.3028,0.3023,0.2811,0.2764,0.2904,0.289,0.3027,0.3026,0.3025,0.3024,0.3023,0,0.182,0.185,0.197,0.2011,0.2076,0.2201,0.2277,0.244,0.2524,0.2716,0.2754,0.2891,0.2932,0.3018,0.3002,0.3029,0.3057,0.2835,0.2706,0.2948,0.2917,0.2904,0.2891,0.2521,0.2517,0.2513,0.251,0,0.1798,0.1834,0.1886,0.196,0.2048,0.2154,0.2283,0.2345,0.2522,0.2603,0.2684,0.2728,0.2861,0.2771,0.2839,0.2811,0.2806,0.2757,0.3075,0.2516,0.2478,0.2445,0.2448,0.2476,0.2479,0.2482,0.2484,0.2485,0.1769,0.1788,0.184,0.191,0.1989,0.2056,0.2096,0.2206,0.2282,0.2365,0.2499,0.2499,0.2573,0.2537,0.2487,0.2485,0.2662,0.2534,0.2543,0.2557,0.2453,0.2414,0.2384,0.2387,0.2389,0.2391,0.2393,0,0.1733,0.1754,0.1795,0.1853,0.187,0.1965,0.2052,0.2043,0.2042,0.2161,0.2194,0.206,0.2033,0.213,0.2074,0.2091,0.2045,0.2011,0.1922,0.1959,0.1992,0.1855,0.163,0.1627,0.1625,0.1622,0,0,0.1715,0.1713,0.1725,0.1715,0.1751,0.1742,0.1754,0.1733,0.1776,0.174,0.1751,0.1909,0.2041,0.1778,0.178,0.1689,0.1797,0.1631,0.2252,0.2183,0.2211,0.2316,0.2152,0,0,0,0,0]},{"header":{"parameterUnit":"m.s-1","parameterCategory":2,"la1":30.2991,"la2":30.254,"lo1":-89.0895,"lo2":-89.0444,"dy":0.0017,"dx":0.0017,"nx":28,"ny":28,"refTime":"2024-08-24T21:00:00:Z","depth":"2","parameterNumber":3,"parameterNumberName":"V-component_of_CURRENTS"},"data":[0,0,0,0,0,0,0,0,0,0,0,0,0,0,0,0,0,0,0,0,0,0,0,0,0,0,0,0,0,0,0,0,0,0,0,0,0,0,0,0,0,0,0,0,0,0,0,0,0,0,0,0,0,0,0,0,0,0,-0.016,-0.0162,0,-0.0268,-0.0269,-0.027,-0.0319,-0.032,-0.032,-0.0321,-0.0476,-0.048,-0.0483,0,0,0,0,0,0,0,0,0,0,0,0,0,-0.0022,-0.0023,-0.016,-0.0162,-0.0164,-0.0268,-0.0269,-0.027,-0.0319,-0.032,-0.032,-0.0321,-0.0475,-0.0479,-0.0484,0,0,0,0,0,0,0,0,0,0,0,0,0,-0.0095,-0.0024,-0.016,-0.0205,-0.0211,-0.0268,-0.0269,-0.027,-0.0319,-0.032,-0.032,-0.0321,-0.0473,-0.0479,-0.0484,-0.0506,0,0,-0.0501,-0.0504,0,0,0,0,0,0,0,0,-0.0091,-0.01,-0.0197,-0.0202,-0.0209,-0.0286,-0.0278,-0.0353,-0.0319,-0.0272,-0.0321,-0.0321,-0.042,-0.043,-0.044,-0.0513,-0.052,-0.0502,-0.0505,-0.0508,-0.0509,0,0,0,0,0,0,0,-0.0086,-0.0096,-0.0197,-0.0199,-0.0206,-0.023,-0.024,-0.0292,-0.0337,-0.0276,-0.0281,-0.0302,-0.0423,-0.0434,-0.0444,-0.0522,-0.0502,-0.0507,-0.051,-0.0512,-0.0594,-0.0592,0,0,0,0,0,0,-0.0082,-0.0091,-0.0194,-0.0201,-0.0157,-0.0232,-0.0243,-0.0256,-0.0336,-0.035,-0.0302,-0.0304,-0.0425,-0.0438,-0.045,-0.0458,-0.0508,-0.0513,-0.0516,-0.0595,-0.0593,-0.0592,0,0,0,0,0,0,-0.0079,-0.009,-0.0189,-0.0153,-0.0168,-0.0234,-0.0248,-0.0258,-0.0282,-0.0356,-0.037,-0.0317,-0.0426,-0.0442,-0.0472,-0.0466,-0.0515,-0.0521,-0.0596,-0.0594,-0.0593,-0.0489,0,0,0,0,0,0,-0.0074,-0.0088,-0.0104,-0.0153,-0.017,-0.0206,-0.0248,-0.026,-0.0296,-0.03,-0.0374,-0.0388,-0.0427,-0.0463,-0.0477,-0.0474,-0.0525,-0.0598,-0.0595,-0.0593,-0.0494,-0.0484,-0.0475,0,0,0,0,0,-0.0068,-0.0094,-0.0103,-0.0117,-0.0187,-0.0206,-0.0215,-0.0261,-0.0296,-0.0288,-0.0331,-0.0387,-0.0459,-0.0466,-0.0484,-0.0482,-0.0599,-0.0596,-0.0593,-0.0498,-0.0486,-0.0475,0,0,0,0,0,0,-0.0026,-0.0103,-0.0115,-0.0156,-0.0168,-0.0216,-0.0238,-0.0263,-0.0293,-0.0304,-0.0372,-0.0387,-0.0402,-0.0457,-0.0463,-0.0496,-0.0539,-0.054,-0.0461,-0.045,-0.0441,-0.0454,-0.053,0,0,0,0,0,-0.0027,-0.0068,-0.0112,-0.0132,-0.015,-0.0191,-0.0213,-0.0229,-0.0264,-0.0279,-0.0332,-0.0382,-0.0403,-0.0438,-0.0462,-0.0498,-0.0538,-0.0507,-0.0497,-0.0489,-0.051,-0.0533,-0.0528,-0.0583,-0.0583,-0.0583,0,0,-0.0039,-0.0061,-0.0102,-0.0127,-0.0152,-0.0151,-0.0204,-0.0224,-0.0214,-0.0293,-0.0311,-0.0345,-0.0398,-0.0409,-0.0425,-0.0462,-0.0488,-0.0486,-0.0478,-0.0505,-0.053,-0.0525,-0.052,-0.0581,-0.0582,-0.0582,0,0,-0.0027,-0.0075,-0.0096,-0.0094,-0.0111,-0.0132,-0.0136,-0.0177,-0.0192,-0.0208,-0.0244,-0.0275,-0.0339,-0.0362,-0.0385,-0.0349,-0.042,-0.0361,-0.0352,-0.0372,-0.0368,-0.0366,-0.0383,-0.0383,-0.0378,-0.0378,-0.0378,0,-0.0032,-0.0035,-0.0096,-0.007,-0.0069,-0.012,-0.0098,-0.0118,-0.0154,-0.017,-0.02,-0.0271,-0.0316,-0.0328,-0.0314,-0.0331,-0.0355,-0.0387,-0.036,-0.0359,-0.0358,-0.0377,-0.0378,-0.0373,-0.0373,-0.0374,-0.0374,0,-0.0007,-0.0004,-0.0006,0.0002,0.0001,0.0012,-0.0014,-0.0027,-0.0069,-0.0097,-0.0124,-0.0177,-0.0233,-0.0239,-0.0277,-0.0286,-0.0307,-0.0325,-0.0388,-0.0346,-0.0368,-0.0371,-0.0365,-0.0367,-0.0369,-0.037,0,0,-0.0028,-0.0005,0.0004,0.0035,0.0046,0.0051,0.0058,0.0046,0.0032,-0.0015,-0.0033,-0.0082,-0.0143,-0.0174,-0.0217,-0.0253,-0.0256,-0.0297,-0.03,-0.0314,-0.03,-0.0293,-0.0296,-0.0268,-0.0268,-0.0269,-0.031,0,0.002,0.0096,0.0084,0.0144,0.0172,0.0143,0.0162,0.0147,0.0096,0.0064,-0.0006,-0.0038,-0.0106,-0.0136,-0.0179,-0.0225,-0.0264,-0.0244,-0.0343,-0.0346,-0.0344,-0.0299,-0.0281,-0.0315,-0.0313,-0.0314,-0.0314,0,0.0063,0.0117,0.0192,0.0236,0.0238,0.0256,0.0256,0.0262,0.0206,0.0163,0.0091,0.0028,-0.003,-0.0092,-0.0186,-0.017,-0.0242,-0.0287,-0.029,-0.0332,-0.0345,-0.0363,-0.0321,-0.032,-0.0319,-0.0319,-0.0319,0,0.0125,0.0184,0.0254,0.0277,0.0314,0.0322,0.0319,0.0285,0.0299,0.021,0.0207,0.0098,0.0075,-0.0039,-0.0151,-0.0173,-0.0243,-0.028,-0.0342,-0.0342,-0.0375,-0.0376,-0.0357,-0.0357,-0.0357,-0.0357,-0.0356,0,0.0196,0.0248,0.0282,0.0327,0.0388,0.0381,0.0409,0.0377,0.036,0.0391,0.0258,0.0271,0.0086,0.0023,-0.0114,-0.0223,-0.0216,-0.034,-0.0352,-0.0334,-0.0331,-0.0386,-0.0388,-0.0358,-0.0358,-0.0357,-0.0357,0,0.0261,0.0292,0.0367,0.0411,0.0424,0.0461,0.0489,0.0514,0.0478,0.0517,0.0504,0.0418,0.0321,0.0151,-0.0014,-0.014,-0.0269,-0.0313,-0.0277,-0.0285,-0.0371,-0.0368,-0.0403,-0.0403,-0.0403,-0.0403,-0.0403,0,0.0315,0.036,0.0431,0.0478,0.0494,0.054,0.0591,0.0573,0.0612,0.0625,0.0675,0.0588,0.0539,0.0303,0.0048,-0.0189,-0.0228,-0.0315,-0.0368,-0.0368,-0.0376,-0.0373,-0.037,-0.0363,-0.0363,-0.0362,-0.0362,0,0.0402,0.0412,0.0474,0.0573,0.0631,0.0701,0.0758,0.082,0.0828,0.0866,0.0911,0.087,0.0633,0.0388,0.0066,-0.0097,-0.0285,-0.0317,-0.0317,-0.0348,-0.0332,-0.034,-0.0338,-0.036,-0.036,-0.036,-0.0361,-0.0361,0.0458,0.0508,0.0581,0.0669,0.0749,0.0853,0.0914,0.0987,0.1075,0.1121,0.1087,0.1016,0.0741,0.031,0.0044,-0.0253,-0.0258,-0.0372,-0.0372,-0.0372,-0.0354,-0.0339,-0.0365,-0.0365,-0.0365,-0.0365,-0.0365,0,0.0523,0.058,0.0671,0.0779,0.0877,0.0901,0.1032,0.1089,0.1197,0.1222,0.1217,0.0961,0.0682,0.0369,-0.0068,-0.032,-0.0357,-0.0397,-0.0391,-0.0391,-0.0391,-0.0374,-0.0391,-0.0391,-0.0392,-0.0393,0,0,0.0561,0.0662,0.0705,0.0873,0.0948,0.1074,0.1151,0.123,0.1266,0.1287,0.1227,0.1112,0.0755,0.0441,0.0098,-0.0146,-0.0213,-0.0197,-0.0151,-0.0102,-0.01,-0.0351,-0.0321,0,0,0,0,0]}],[{"header":{"parameterUnit":"m.s-1","parameterCategory":2,"la1":30.2991,"la2":30.254,"lo1":-89.0895,"lo2":-89.0444,"dy":0.0017,"dx":0.0017,"nx":28,"ny":28,"refTime":"2024-08-24T21:00:00:Z","depth":"4","parameterNumber":2,"parameterNumberName":"U-component_of_CURRENTS"},"data":[0,0,0,0,0,0,0,0,0,0,0,0,0,0,0,0,0,0,0,0,0,0,0,0,0,0,0,0,0,0,0,0,0,0,0,0,0,0,0,0,0,0,0,0,0,0,0,0,0,0,0,0,0,0,0,0,0,0,0.0932,0.0932,0,0.0993,0.0993,0.0994,0.106,0.1061,0.1062,0.1063,0.1153,0.1155,0.1156,0,0,0,0,0,0,0,0,0,0,0,0,0,0.0826,0.0828,0.0931,0.0932,0.0933,0.0993,0.0993,0.0994,0.1059,0.1061,0.1062,0.1064,0.1153,0.1154,0.1156,0,0,0,0,0,0,0,0,0,0,0,0,0,0.0875,0.0828,0.0931,0.0975,0.098,0.0992,0.0993,0.0994,0.1059,0.1061,0.1063,0.1064,0.1152,0.1154,0.1156,0.1132,0,0,0.1162,0.1163,0,0,0,0,0,0,0,0,0.0872,0.0879,0.0968,0.0973,0.0978,0.1023,0.0989,0.1042,0.1059,0.1026,0.1063,0.1065,0.1113,0.1118,0.1121,0.1136,0.114,0.1162,0.1163,0.1164,0.1165,0,0,0,0,0,0,0,0.0869,0.0876,0.0953,0.0969,0.0975,0.0977,0.0986,0.0999,0.1057,0.1029,0.1035,0.1046,0.1116,0.1119,0.1124,0.1141,0.1162,0.1164,0.1165,0.1166,0.128,0.1282,0,0,0,0,0,0,0.0868,0.0873,0.0951,0.0955,0.0932,0.0978,0.0988,0.1004,0.1056,0.1067,0.1044,0.1048,0.1115,0.1122,0.1127,0.1215,0.1164,0.1166,0.1167,0.1278,0.1281,0.1283,0,0,0,0,0,0,0.0865,0.0874,0.0949,0.0917,0.0927,0.0978,0.0996,0.1005,0.104,0.1068,0.1079,0.1075,0.1117,0.1125,0.1189,0.1215,0.1167,0.1169,0.1276,0.1279,0.1282,0.1317,0,0,0,0,0,0,0.0862,0.0873,0.0893,0.0917,0.0929,0.098,0.0995,0.1005,0.1044,0.1051,0.1097,0.1106,0.1119,0.1187,0.1191,0.1216,0.117,0.1274,0.1277,0.1281,0.1313,0.132,0.1326,0,0,0,0,0,0.0858,0.0877,0.0894,0.0904,0.0952,0.0981,0.0988,0.1027,0.1044,0.1064,0.1113,0.1106,0.1212,0.119,0.1195,0.1221,0.1272,0.1276,0.128,0.131,0.1319,0.1326,0,0,0,0,0,0,0.0848,0.0886,0.0905,0.0938,0.0969,0.0995,0.1018,0.1038,0.1087,0.1106,0.1129,0.1142,0.1212,0.1212,0.1186,0.1267,0.124,0.1246,0.1261,0.127,0.1276,0.126,0.1172,0,0,0,0,0,0.0852,0.0871,0.0912,0.0937,0.0957,0.0989,0.1009,0.1037,0.1077,0.1101,0.1136,0.1178,0.1224,0.1246,0.1284,0.1317,0.1327,0.1339,0.1345,0.1351,0.1343,0.1402,0.1413,0.1297,0.1297,0.1296,0,0,0.0849,0.0876,0.0886,0.0935,0.0962,0.0998,0.1007,0.1047,0.1081,0.1102,0.1168,0.1209,0.1244,0.13,0.1328,0.1305,0.1391,0.1356,0.136,0.135,0.1407,0.1418,0.1428,0.1299,0.1299,0.1299,0,0,0.0855,0.0886,0.091,0.0942,0.0995,0.1014,0.1033,0.1079,0.111,0.1167,0.1206,0.1262,0.1316,0.135,0.1371,0.1431,0.1435,0.145,0.1457,0.1515,0.1524,0.1533,0.1561,0.1572,0.1441,0.1441,0.1441,0,0.0859,0.0899,0.0921,0.0963,0.0995,0.1027,0.1068,0.1095,0.1159,0.1184,0.12,0.1312,0.1335,0.1407,0.143,0.1444,0.1474,0.1421,0.1522,0.1531,0.1539,0.1566,0.1577,0.1443,0.1443,0.1442,0.1442,0,0.0884,0.093,0.0948,0.101,0.1043,0.1081,0.1126,0.1161,0.1197,0.1227,0.1314,0.1362,0.1427,0.1444,0.1452,0.1526,0.1529,0.1533,0.1496,0.1552,0.1578,0.1589,0.1446,0.1445,0.1445,0.1444,0,0,0.0868,0.095,0.0962,0.0999,0.1075,0.1099,0.1152,0.1205,0.124,0.1305,0.1366,0.1436,0.1469,0.1496,0.1528,0.1559,0.1635,0.1567,0.1569,0.1584,0.1757,0.1654,0.1656,0.1669,0.1672,0.1673,0.1751,0,0.0892,0.0966,0.1001,0.107,0.1118,0.1156,0.1201,0.125,0.1292,0.1355,0.1411,0.1488,0.1489,0.1536,0.1575,0.1636,0.1667,0.1612,0.1709,0.1711,0.1604,0.1666,0.168,0.1759,0.1762,0.1764,0.1765,0,0.0922,0.0967,0.1039,0.1111,0.1134,0.1177,0.1242,0.1287,0.1366,0.1412,0.1491,0.1533,0.1618,0.1606,0.1722,0.1697,0.1725,0.1749,0.1754,0.1648,0.1628,0.1693,0.1785,0.1783,0.1782,0.1781,0.1779,0,0.0909,0.0997,0.1049,0.1079,0.1162,0.1196,0.1241,0.1311,0.1361,0.1462,0.1523,0.1613,0.1706,0.1748,0.1797,0.1776,0.1908,0.1888,0.1815,0.1808,0.1859,0.1849,0.1952,0.1952,0.1952,0.1952,0.1952,0,0.0925,0.097,0.105,0.108,0.1134,0.1204,0.1262,0.132,0.1427,0.1489,0.157,0.1638,0.1752,0.1826,0.1833,0.1865,0.1948,0.1821,0.1827,0.1873,0.1863,0.1867,0.1856,0.1955,0.1954,0.1954,0.1953,0,0.091,0.0964,0.1027,0.1111,0.1136,0.1181,0.1281,0.1314,0.1441,0.1534,0.1579,0.1718,0.1809,0.188,0.197,0.1928,0.1944,0.1929,0.1973,0.198,0.179,0.178,0.1846,0.1843,0.184,0.1838,0.1837,0,0.0904,0.0942,0.1032,0.1059,0.1101,0.1169,0.12,0.1317,0.1365,0.1546,0.1589,0.1732,0.1795,0.1855,0.1928,0.1953,0.193,0.1923,0.1838,0.1782,0.1782,0.1776,0.177,0.1833,0.1832,0.1832,0.1831,0,0.089,0.0933,0.0977,0.1037,0.1076,0.1106,0.1178,0.1214,0.1342,0.1465,0.1557,0.1607,0.1726,0.1788,0.1848,0.1846,0.1913,0.1896,0.19,0.182,0.1768,0.1768,0.1765,0.1823,0.1824,0.1825,0.1825,0,0.0874,0.0896,0.0959,0.0999,0.1041,0.1046,0.1081,0.114,0.1209,0.1406,0.1422,0.157,0.17,0.1734,0.1765,0.1785,0.1747,0.1673,0.1688,0.1698,0.1614,0.1523,0.1513,0,0,0,0,0,0.0854,0.087,0.091,0.0943,0.098,0.1001,0.1063,0.1102,0.1214,0.1241,0.134,0.1417,0.1504,0.1581,0.1574,0.17,0.1752,0.1682,0.1673,0.1776,0.1786,0.1701,0,0,0,0,0,0,0.0837,0.0881,0.0893,0.0887,0.0897,0.0917,0.0947,0.1016,0.1043,0.1174,0.1231,0.1334,0.1442,0.1506,0.1552,0.1574,0.1538,0.1774,0.177,0.177,0.1779,0.1787,0.1703,0,0,0,0,0]},{"header":{"parameterUnit":"m.s-1","parameterCategory":2,"la1":30.2991,"la2":30.254,"lo1":-89.0895,"lo2":-89.0444,"dy":0.0017,"dx":0.0017,"nx":28,"ny":28,"refTime":"2024-08-24T21:00:00:Z","depth":"4","parameterNumber":3,"parameterNumberName":"V-component_of_CURRENTS"},"data":[0,0,0,0,0,0,0,0,0,0,0,0,0,0,0,0,0,0,0,0,0,0,0,0,0,0,0,0,0,0,0,0,0,0,0,0,0,0,0,0,0,0,0,0,0,0,0,0,0,0,0,0,0,0,0,0,0,0,0.0391,0.039,0,0.0349,0.0348,0.0348,0.0328,0.0328,0.0328,0.0328,0.0335,0.0335,0.0335,0,0,0,0,0,0,0,0,0,0,0,0,0,0.0433,0.0433,0.0391,0.039,0.039,0.0349,0.0348,0.0348,0.0328,0.0328,0.0328,0.0328,0.0335,0.0335,0.0335,0,0,0,0,0,0,0,0,0,0,0,0,0,0.0405,0.0433,0.0391,0.0375,0.0373,0.0349,0.0348,0.0347,0.0328,0.0328,0.0328,0.0328,0.0335,0.0335,0.0335,0.0334,0,0,0.0336,0.0336,0,0,0,0,0,0,0,0,0.0407,0.0403,0.0378,0.0376,0.0374,0.0344,0.0366,0.0346,0.0328,0.0345,0.0328,0.0328,0.0343,0.0342,0.0333,0.0335,0.0335,0.0336,0.0336,0.0336,0.0336,0,0,0,0,0,0,0,0.0409,0.0405,0.0374,0.0377,0.0375,0.0363,0.036,0.0361,0.0344,0.0343,0.0342,0.0338,0.0342,0.0333,0.0333,0.0335,0.0336,0.0336,0.0336,0.0336,0.0293,0.0292,0,0,0,0,0,0,0.0416,0.0407,0.0375,0.0372,0.0391,0.0363,0.0358,0.0353,0.0343,0.0341,0.0338,0.0337,0.0332,0.0333,0.0333,0.0315,0.0336,0.0336,0.0336,0.0294,0.0293,0.0291,0,0,0,0,0,0,0.0417,0.0413,0.0377,0.0389,0.0384,0.0362,0.0356,0.0352,0.034,0.0338,0.0338,0.033,0.0332,0.0333,0.0316,0.0316,0.0336,0.0336,0.0296,0.0294,0.0292,0.029,0,0,0,0,0,0,0.0418,0.0414,0.0412,0.039,0.0383,0.035,0.0356,0.0351,0.0338,0.0337,0.0332,0.0332,0.0332,0.0316,0.0316,0.0317,0.0336,0.0297,0.0295,0.0293,0.0292,0.0289,0.0286,0,0,0,0,0,0.042,0.0414,0.0413,0.0409,0.0382,0.0349,0.0344,0.0329,0.0338,0.0321,0.0316,0.0332,0.0301,0.0315,0.0316,0.0316,0.0299,0.0296,0.0293,0.0293,0.0289,0.0286,0,0,0,0,0,0,0.0433,0.0411,0.0409,0.0397,0.0371,0.0345,0.0334,0.0329,0.0311,0.0314,0.0318,0.0317,0.0297,0.0302,0.0317,0.0293,0.0302,0.03,0.0302,0.0298,0.0295,0.0336,0.0337,0,0,0,0,0,0.0436,0.0424,0.0399,0.0389,0.0378,0.0358,0.0346,0.0333,0.0316,0.0308,0.0309,0.0303,0.0286,0.0289,0.0272,0.027,0.0263,0.0267,0.0264,0.0262,0.0293,0.0252,0.0249,0.0282,0.0282,0.0282,0,0,0.0443,0.0426,0.0422,0.0391,0.0374,0.0359,0.035,0.0325,0.0322,0.0314,0.0312,0.0289,0.0277,0.026,0.0254,0.0269,0.0243,0.0258,0.0257,0.029,0.0249,0.0246,0.0243,0.028,0.0281,0.0281,0,0,0.0438,0.043,0.0415,0.0395,0.0364,0.0353,0.0347,0.0322,0.0317,0.0304,0.029,0.0271,0.026,0.0249,0.0243,0.0216,0.0216,0.0204,0.024,0.0199,0.0197,0.0195,0.0163,0.0158,0.0216,0.0216,0.0216,0,0.0446,0.0428,0.0405,0.0383,0.0381,0.0355,0.0348,0.0333,0.0308,0.0319,0.0304,0.0279,0.0261,0.0251,0.0235,0.0215,0.0191,0.0258,0.0197,0.0195,0.0193,0.0162,0.0157,0.0216,0.0216,0.0216,0.0216,0,0.0427,0.0417,0.0406,0.0382,0.0372,0.0356,0.0342,0.0337,0.0338,0.0336,0.0323,0.0285,0.0282,0.0255,0.0242,0.022,0.0205,0.0187,0.0214,0.0191,0.0157,0.0152,0.0215,0.0215,0.0215,0.0215,0,0,0.0436,0.0403,0.04,0.0405,0.0376,0.0372,0.0371,0.0374,0.0397,0.0363,0.0385,0.0337,0.0328,0.032,0.0286,0.0255,0.0201,0.0224,0.0221,0.0207,0.0111,0.0082,0.0074,0.0164,0.0164,0.0163,0.0088,0,0.0431,0.0411,0.0398,0.0402,0.0399,0.0395,0.0408,0.0411,0.0414,0.0424,0.039,0.0383,0.0348,0.0338,0.0301,0.0222,0.019,0.0224,0.0126,0.0125,0.0113,0.0068,0.0162,0.0084,0.0083,0.0082,0.0081,0,0.0414,0.041,0.0413,0.0436,0.0438,0.0449,0.0491,0.0496,0.0502,0.0505,0.0497,0.0462,0.0418,0.0379,0.0269,0.0288,0.0214,0.0152,0.0146,0.0129,0.0086,0.0114,0.0072,0.0072,0.0073,0.0074,0.0074,0,0.0431,0.0426,0.0442,0.0443,0.0457,0.0486,0.051,0.0532,0.056,0.0559,0.0567,0.0513,0.048,0.0382,0.0258,0.0257,0.0126,0.0103,0.0014,0.0011,0.0065,0.0068,0.0033,0.0033,0.0033,0.0033,0.0033,0,0.0425,0.0441,0.046,0.0467,0.0523,0.0527,0.0594,0.0607,0.0632,0.0662,0.0616,0.0601,0.0476,0.0384,0.0272,0.0127,0.0134,0.0025,-0.0011,0.0061,0.0064,0.006,0.0064,0.003,0.0031,0.0032,0.0032,0,0.0431,0.0431,0.0461,0.05,0.0526,0.0572,0.0651,0.0693,0.0708,0.0736,0.0731,0.0662,0.0535,0.0404,0.0235,0.0145,0.0007,-0.0043,0.0052,0.0022,-0.0081,-0.0076,-0.0148,-0.0149,-0.0151,-0.0152,-0.0153,0,0.0425,0.0437,0.0496,0.0531,0.0555,0.063,0.0682,0.0729,0.0767,0.0762,0.0764,0.0662,0.0593,0.0347,0.0202,-0.0006,-0.0036,-0.0101,-0.0092,-0.0071,-0.01,-0.0093,-0.0086,-0.0155,-0.0156,-0.0156,-0.0156,0,0.0433,0.0457,0.0489,0.0559,0.0622,0.0696,0.0768,0.0797,0.0833,0.0843,0.0781,0.0656,0.0515,0.0332,0.0173,0.0022,-0.0058,-0.0116,-0.0114,-0.0106,-0.0082,-0.0107,-0.0099,-0.0161,-0.0161,-0.016,-0.016,0,0.0452,0.0479,0.0525,0.059,0.0668,0.0733,0.0774,0.0805,0.0842,0.0826,0.0796,0.065,0.0571,0.0344,0.0191,0.0045,0.0006,-0.004,-0.0042,-0.0039,0.0011,0.006,-0.0005,0,0,0,0,0,0.0465,0.0494,0.0552,0.062,0.0695,0.074,0.0816,0.0846,0.087,0.0829,0.0818,0.0681,0.045,0.0353,0.02,0.0159,-0.002,-0.0026,-0.0074,-0.0189,-0.0183,-0.0146,0,0,0,0,0,0,0.047,0.0524,0.0549,0.0635,0.068,0.0768,0.0814,0.0829,0.0809,0.0803,0.0686,0.0633,0.0414,0.0534,0.0192,0.0148,0.0094,-0.0127,-0.0131,-0.0192,-0.0187,-0.0182,-0.0142,0,0,0,0,0]}]]